Time,TemperatureF,DewpointF,PressureIn,WindDirection,WindDirectionDegrees,WindSpeedMPH,WindSpeedGustMPH,Humidity,HourlyPrecipIn,Conditions,Clouds,dailyrainin,SoftwareType,DateUTC
2013-06-30 00:01:00,67.3,66.0,29.65,NE,37,0.0,1.0,94,0.00,,,0.00,weatherlink.com 1.10,2013-06-30 04:01:00,
2013-06-30 00:16:00,67.2,66.0,29.65,NE,37,0.0,2.0,94,0.00,,,0.00,weatherlink.com 1.10,2013-06-30 04:16:00,
2013-06-30 00:31:00,67.1,65.0,29.65,NE,37,0.0,1.0,94,0.00,,,0.00,weatherlink.com 1.10,2013-06-30 04:31:00,
2013-06-30 00:46:00,66.8,65.0,29.66,NE,37,0.0,1.0,95,0.00,,,0.00,weatherlink.com 1.10,2013-06-30 04:46:00,
2013-06-30 01:01:00,66.6,65.0,29.66,NE,37,0.0,1.0,95,0.00,,,0.00,weatherlink.com 1.10,2013-06-30 05:01:00,
2013-06-30 01:16:00,66.5,65.0,29.66,NE,37,0.0,1.0,95,0.00,,,0.00,weatherlink.com 1.10,2013-06-30 05:16:00,
2013-06-30 01:31:00,66.5,65.0,29.67,NE,37,0.0,1.0,96,0.00,,,0.00,weatherlink.com 1.10,2013-06-30 05:31:00,
2013-06-30 01:46:00,66.3,65.0,29.67,NE,36,0.0,1.0,96,0.00,,,0.00,weatherlink.com 1.10,2013-06-30 05:46:00,
2013-06-30 02:01:00,66.3,65.0,29.67,NE,37,0.0,1.0,96,0.00,,,0.00,weatherlink.com 1.10,2013-06-30 06:01:00,
2013-06-30 02:16:00,66.1,65.0,29.67,NE,37,0.0,1.0,96,0.00,,,0.00,weatherlink.com 1.10,2013-06-30 06:16:00,
2013-06-30 02:31:00,66.2,65.0,29.68,NE,37,0.0,1.0,96,0.00,,,0.00,weatherlink.com 1.10,2013-06-30 06:31:00,
2013-06-30 02:46:00,65.9,65.0,29.68,NE,37,0.0,1.0,96,0.00,,,0.00,weatherlink.com 1.10,2013-06-30 06:46:00,
2013-06-30 03:01:00,65.2,64.0,29.68,NE,37,0.0,1.0,96,0.00,,,0.00,weatherlink.com 1.10,2013-06-30 07:01:00,
2013-06-30 03:16:00,64.8,64.0,29.69,NE,37,0.0,0.0,96,0.00,,,0.00,weatherlink.com 1.10,2013-06-30 07:16:00,
2013-06-30 03:31:00,64.3,64.0,29.69,NE,37,0.0,1.0,97,0.00,,,0.00,weatherlink.com 1.10,2013-06-30 07:31:00,
2013-06-30 03:46:00,64.1,63.0,29.70,NE,37,0.0,1.0,97,0.00,,,0.00,weatherlink.com 1.10,2013-06-30 07:46:00,
2013-06-30 04:01:00,63.3,63.0,29.70,NE,37,0.0,1.0,97,0.00,,,0.00,weatherlink.com 1.10,2013-06-30 08:01:00,
2013-06-30 04:16:00,63.0,62.0,29.70,NE,37,0.0,1.0,97,0.00,,,0.00,weatherlink.com 1.10,2013-06-30 08:16:00,
2013-06-30 04:31:00,62.9,62.0,29.71,NE,37,0.0,0.0,98,0.00,,,0.00,weatherlink.com 1.10,2013-06-30 08:31:00,
2013-06-30 04:46:00,62.4,62.0,29.71,NE,37,0.0,1.0,97,0.00,,,0.00,weatherlink.com 1.10,2013-06-30 08:46:00,
2013-06-30 05:01:00,62.2,62.0,29.72,NE,37,0.0,1.0,98,0.00,,,0.00,weatherlink.com 1.10,2013-06-30 09:01:00,
2013-06-30 05:17:00,61.9,61.0,29.73,NE,37,0.0,0.0,98,0.00,,,0.00,weatherlink.com 1.10,2013-06-30 09:17:00,
2013-06-30 05:32:00,61.7,61.0,29.73,NE,40,0.0,1.0,98,0.00,,,0.00,weatherlink.com 1.10,2013-06-30 09:32:00,
2013-06-30 05:47:00,61.7,61.0,29.73,NE,40,0.0,1.0,98,0.00,,,0.00,weatherlink.com 1.10,2013-06-30 09:47:00,
2013-06-30 06:02:00,62.4,62.0,29.74,NE,41,0.0,1.0,98,0.00,,,0.00,weatherlink.com 1.10,2013-06-30 10:02:00,
2013-06-30 06:17:00,63.9,63.0,29.74,NE,41,0.0,1.0,98,0.00,,,0.00,weatherlink.com 1.10,2013-06-30 10:17:00,
2013-06-30 06:32:00,65.0,64.0,29.75,ESE,107,0.0,1.0,95,0.00,,,0.00,weatherlink.com 1.10,2013-06-30 10:32:00,
2013-06-30 06:47:00,66.3,65.0,29.76,ENE,67,0.0,1.0,94,0.00,,,0.00,weatherlink.com 1.10,2013-06-30 10:47:00,
2013-06-30 07:02:00,70.1,66.0,29.76,SE,141,0.0,1.0,87,0.00,,,0.00,weatherlink.com 1.10,2013-06-30 11:02:00,
2013-06-30 07:17:00,68.5,65.0,29.76,SE,143,0.0,2.0,89,0.00,,,0.00,weatherlink.com 1.10,2013-06-30 11:17:00,
2013-06-30 07:32:00,68.8,66.0,29.77,ESE,109,0.0,1.0,89,0.00,,,0.00,weatherlink.com 1.10,2013-06-30 11:32:00,
2013-06-30 07:47:00,71.0,67.0,29.77,SSE,151,1.0,2.0,87,0.00,,,0.00,weatherlink.com 1.10,2013-06-30 11:47:00,
2013-06-30 08:02:00,71.2,67.0,29.78,East,79,2.0,5.0,86,0.00,,,0.00,weatherlink.com 1.10,2013-06-30 12:02:00,
2013-06-30 08:17:00,71.6,67.0,29.78,East,97,0.0,2.0,86,0.00,,,0.00,weatherlink.com 1.10,2013-06-30 12:17:00,
2013-06-30 08:32:00,73.5,66.0,29.79,NW,312,0.0,3.0,78,0.00,,,0.00,weatherlink.com 1.10,2013-06-30 12:32:00,
2013-06-30 08:47:00,74.9,67.0,29.79,WSW,245,0.0,2.0,76,0.00,,,0.00,weatherlink.com 1.10,2013-06-30 12:47:00,
2013-06-30 09:02:00,75.7,67.0,29.79,SE,130,1.0,2.0,74,0.00,,,0.00,weatherlink.com 1.10,2013-06-30 13:02:00,
2013-06-30 09:17:00,74.6,67.0,29.79,NW,312,0.0,3.0,76,0.00,,,0.00,weatherlink.com 1.10,2013-06-30 13:17:00,
2013-06-30 09:32:00,75.3,67.0,29.79,ESE,111,1.0,4.0,75,0.00,,,0.00,weatherlink.com 1.10,2013-06-30 13:32:00,
2013-06-30 09:47:00,76.0,67.0,29.79,South,179,5.0,10.0,73,0.00,,,0.00,weatherlink.com 1.10,2013-06-30 13:47:00,
2013-06-30 10:02:00,77.2,66.0,29.79,WNW,290,0.0,7.0,69,0.00,,,0.00,weatherlink.com 1.10,2013-06-30 14:02:00,
2013-06-30 10:17:00,79.0,67.0,29.79,WNW,297,2.0,5.0,66,0.00,,,0.00,weatherlink.com 1.10,2013-06-30 14:17:00,
2013-06-30 10:32:00,78.6,67.0,29.79,SE,141,4.0,8.0,68,0.00,,,0.00,weatherlink.com 1.10,2013-06-30 14:32:00,
2013-06-30 10:47:00,78.3,66.0,29.79,SSE,148,1.0,9.0,65,0.00,,,0.00,weatherlink.com 1.10,2013-06-30 14:47:00,
2013-06-30 11:02:00,79.8,66.0,29.79,ESE,110,1.0,7.0,63,0.00,,,0.00,weatherlink.com 1.10,2013-06-30 15:02:00,
2013-06-30 11:17:00,82.6,66.0,29.79,West,275,1.0,4.0,58,0.00,,,0.00,weatherlink.com 1.10,2013-06-30 15:17:00,
2013-06-30 11:32:00,80.7,66.0,29.79,SSE,161,4.0,7.0,62,0.00,,,0.00,weatherlink.com 1.10,2013-06-30 15:32:00,
2013-06-30 11:47:00,81.4,68.0,29.79,SE,141,5.0,9.0,63,0.00,,,0.00,weatherlink.com 1.10,2013-06-30 15:47:00,
2013-06-30 12:03:00,81.0,66.0,29.79,SE,145,4.0,11.0,61,0.00,,,0.00,weatherlink.com 1.10,2013-06-30 16:03:00,
2013-06-30 12:17:00,83.3,65.0,29.79,WSW,245,3.0,6.0,54,0.00,,,0.00,weatherlink.com 1.10,2013-06-30 16:17:00,
2013-06-30 12:33:00,83.5,66.0,29.79,SE,146,5.0,5.0,56,0.00,,,0.00,weatherlink.com 1.10,2013-06-30 16:33:00,
2013-06-30 12:48:00,83.0,66.0,29.79,SE,131,1.0,7.0,57,0.00,,,0.00,weatherlink.com 1.10,2013-06-30 16:48:00,
2013-06-30 13:03:00,84.7,66.0,29.79,SSW,206,2.0,10.0,54,0.00,,,0.00,weatherlink.com 1.10,2013-06-30 17:03:00,
2013-06-30 13:18:00,85.5,64.0,29.79,SW,236,2.0,5.0,49,0.00,,,0.00,weatherlink.com 1.10,2013-06-30 17:18:00,
2013-06-30 13:33:00,84.8,64.0,29.78,ESE,120,0.0,5.0,50,0.00,,,0.00,weatherlink.com 1.10,2013-06-30 17:33:00,
2013-06-30 13:48:00,84.9,66.0,29.78,East,84,4.0,8.0,54,0.00,,,0.00,weatherlink.com 1.10,2013-06-30 17:48:00,
2013-06-30 14:03:00,84.0,66.0,29.78,SE,125,5.0,7.0,55,0.00,,,0.00,weatherlink.com 1.10,2013-06-30 18:03:00,
2013-06-30 14:18:00,83.6,65.0,29.77,SSE,161,5.0,9.0,54,0.00,,,0.00,weatherlink.com 1.10,2013-06-30 18:18:00,
2013-06-30 14:33:00,83.6,66.0,29.78,SE,139,6.0,7.0,56,0.00,,,0.00,weatherlink.com 1.10,2013-06-30 18:33:00,
2013-06-30 14:48:00,84.5,65.0,29.78,ESE,113,4.0,7.0,53,0.00,,,0.00,weatherlink.com 1.10,2013-06-30 18:48:00,
2013-06-30 15:03:00,86.0,66.0,29.78,ESE,115,3.0,7.0,52,0.00,,,0.00,weatherlink.com 1.10,2013-06-30 19:03:00,
2013-06-30 15:18:00,86.1,65.0,29.78,West,261,2.0,5.0,50,0.00,,,0.00,weatherlink.com 1.10,2013-06-30 19:18:00,
2013-06-30 15:33:00,85.8,66.0,29.77,South,187,0.0,3.0,52,0.00,,,0.00,weatherlink.com 1.10,2013-06-30 19:33:00,
2013-06-30 15:48:00,84.3,66.0,29.77,ESE,122,2.0,3.0,55,0.00,,,0.00,weatherlink.com 1.10,2013-06-30 19:48:00,
2013-06-30 16:03:00,83.3,68.0,29.77,ESE,103,1.0,3.0,60,0.00,,,0.00,weatherlink.com 1.10,2013-06-30 20:03:00,
2013-06-30 16:18:00,80.8,71.0,29.77,NE,46,1.0,2.0,72,0.00,,,0.00,weatherlink.com 1.10,2013-06-30 20:18:00,
2013-06-30 16:33:00,78.6,72.0,29.77,NNE,15,1.0,1.0,80,0.00,,,0.00,weatherlink.com 1.10,2013-06-30 20:33:00,
2013-06-30 16:48:00,77.6,70.0,29.78,NE,49,1.0,6.0,76,0.00,,,0.00,weatherlink.com 1.10,2013-06-30 20:48:00,
2013-06-30 17:03:00,77.3,70.0,29.77,NE,55,0.0,1.0,79,0.00,,,0.00,weatherlink.com 1.10,2013-06-30 21:03:00,
2013-06-30 17:18:00,78.0,72.0,29.78,SE,146,0.0,2.0,81,0.00,,,0.00,weatherlink.com 1.10,2013-06-30 21:18:00,
2013-06-30 17:33:00,76.8,72.0,29.79,NE,56,0.0,1.0,85,0.02,,,0.02,weatherlink.com 1.10,2013-06-30 21:33:00,
2013-06-30 17:48:00,76.0,73.0,29.79,NE,38,0.0,1.0,90,0.03,,,0.03,weatherlink.com 1.10,2013-06-30 21:48:00,
2013-06-30 18:03:00,75.7,71.0,29.80,NW,323,0.0,2.0,86,0.03,,,0.03,weatherlink.com 1.10,2013-06-30 22:03:00,
2013-06-30 18:18:00,74.2,72.0,29.80,NNE,31,0.0,1.0,92,0.02,,,0.03,weatherlink.com 1.10,2013-06-30 22:18:00,
2013-06-30 18:33:00,74.1,71.0,29.80,NE,52,0.0,1.0,89,0.01,,,0.03,weatherlink.com 1.10,2013-06-30 22:33:00,
2013-06-30 18:48:00,73.6,72.0,29.82,West,269,0.0,1.0,93,0.07,,,0.10,weatherlink.com 1.10,2013-06-30 22:48:00,
2013-06-30 19:03:00,73.2,71.0,29.83,WNW,290,0.0,2.0,93,0.18,,,0.21,weatherlink.com 1.10,2013-06-30 23:03:00,
2013-06-30 19:18:00,72.2,70.0,29.83,SW,236,3.0,4.0,91,0.24,,,0.27,weatherlink.com 1.10,2013-06-30 23:18:00,
2013-06-30 19:33:00,71.1,69.0,29.84,NNW,330,0.0,2.0,92,0.24,,,0.27,weatherlink.com 1.10,2013-06-30 23:33:00,
2013-06-30 19:48:00,70.2,68.0,29.86,ENE,77,3.0,6.0,92,0.18,,,0.28,weatherlink.com 1.10,2013-06-30 23:48:00,
2013-06-30 20:03:00,69.5,68.0,29.85,NE,36,1.0,5.0,93,0.07,,,0.29,weatherlink.com 1.10,2013-07-01 00:03:00,
2013-06-30 20:18:00,69.2,68.0,29.86,NE,49,0.0,3.0,95,0.02,,,0.29,weatherlink.com 1.10,2013-07-01 00:18:00,
2013-06-30 20:33:00,69.3,68.0,29.86,NE,45,0.0,1.0,96,0.02,,,0.29,weatherlink.com 1.10,2013-07-01 00:33:00,
2013-06-30 20:48:00,69.1,68.0,29.87,NE,43,0.0,1.0,96,0.02,,,0.30,weatherlink.com 1.10,2013-07-01 00:48:00,
2013-06-30 21:03:00,69.2,68.0,29.88,NE,43,0.0,1.0,96,0.02,,,0.31,weatherlink.com 1.10,2013-07-01 01:03:00,
2013-06-30 21:18:00,69.0,68.0,29.88,ENE,72,0.0,2.0,97,0.02,,,0.31,weatherlink.com 1.10,2013-07-01 01:18:00,
2013-06-30 21:33:00,69.0,68.0,29.89,SE,141,0.0,1.0,97,0.02,,,0.31,weatherlink.com 1.10,2013-07-01 01:33:00,
2013-06-30 21:48:00,69.1,68.0,29.89,NE,45,0.0,2.0,97,0.01,,,0.31,weatherlink.com 1.10,2013-07-01 01:48:00,
2013-06-30 22:03:00,69.2,68.0,29.89,SW,217,1.0,2.0,97,0.00,,,0.31,weatherlink.com 1.10,2013-07-01 02:03:00,
2013-06-30 22:18:00,69.0,68.0,29.90,SW,233,0.0,1.0,96,0.00,,,0.31,weatherlink.com 1.10,2013-07-01 02:18:00,
2013-06-30 22:33:00,68.9,68.0,29.90,NE,44,0.0,2.0,95,0.00,,,0.31,weatherlink.com 1.10,2013-07-01 02:33:00,
2013-06-30 22:48:00,68.9,68.0,29.90,SSE,159,1.0,1.0,95,0.00,,,0.31,weatherlink.com 1.10,2013-07-01 02:48:00,
2013-06-30 23:03:00,68.7,67.0,29.90,NW,310,0.0,3.0,95,0.00,,,0.31,weatherlink.com 1.10,2013-07-01 03:03:00,
2013-06-30 23:18:00,68.6,67.0,29.90,NE,56,0.0,1.0,95,0.00,,,0.31,weatherlink.com 1.10,2013-07-01 03:18:00,
2013-06-30 23:33:00,68.3,67.0,29.90,North,5,0.0,1.0,95,0.00,,,0.31,weatherlink.com 1.10,2013-07-01 03:33:00,
2013-06-30 23:48:00,68.2,67.0,29.91,North,5,0.0,0.0,96,0.00,,,0.31,weatherlink.com 1.10,2013-07-01 03:48:00,